User: anonymous   Login
Location: Unspecified
(0.0000°N, 0.0000°E)
Time: 10:14:50
(UTC+00:00)
Language:

COSMOS 2451 - Orbit

View from above orbital plane
View from above orbital plane
View from above satellite
View from above satellite

Ground track
Ground track

The orbit data is extracted from the following two-line orbital elements,

1 35498U 09036A   17080.87841560 +.00000031 +00000-0 +15519-3 0  9990
2 35498 082.4920 025.9776 0007069 353.3363 006.7622 12.40814670349215
Epoch (UTC): 21 March 2017 21:04:55
Eccentricity: 0.0007069
inclination: 82.4920°
perigee height: 1497 km
apogee height: 1509 km
right ascension of ascending node: 25.9776°
argument of perigee: 353.3363°
revolutions per day: 12.40814670
mean anomaly at epoch: 6.7622°
orbit number at epoch: 34921

The dashed part of the orbit path shows where the satellite is in the earth's shadow,  

DLR